Theta_e
317 317 316 316 317 316 315 315 315 315 316 316 316 316 316 316 316 318 314 315 317 321 318 316 320 315 316 316 317 316 306 303 305 306 308 313 311 315 317 314 316 319 320 326 344
317 317 316 316 315 315 315 314 315 315 315 316 316 315 316 316 315 315 324 326 321 319 314 316 312 313 310 311 314 311 305 305 311 312 311 312 311 312 312 312 313 315 321 331 338
316 316 315 315 315 315 314 314 314 315 315 315 315 315 315 316 314 313 329 326 327 321 319 318 317 312 308 310 310 310 305 310 311 313 313 312 312 313 310 309 312 313 317 324 334
315 315 314 314 314 314 313 313 314 315 315 315 316 315 315 317 302 316 325 323 320 321 319 314 313 309 306 305 310 306 310 311 311 312 312 310 312 310 311 312 315 317 318 320 328
314 314 314 314 314 314 314 314 314 314 315 317 316 315 315 311 309 316 325 325 324 319 315 312 309 309 305 307 308 306 308 310 312 312 311 312 309 309 311 314 316 316 317 318 323
314 314 313 313 313 314 315 314 314 314 317 318 315 314 315 305 316 317 315 316 318 318 315 314 310 311 308 308 307 309 309 309 310 310 311 309 309 310 312 315 315 315 314 316 319
314 313 313 313 313 314 315 314 313 315 317 315 314 316 311 306 315 316 316 313 316 317 314 316 314 310 309 305 309 308 303 306 307 308 308 310 306 306 313 315 314 315 315 316 317
313 312 312 313 314 314 314 313 314 317 316 315 315 318 307 313 316 313 314 315 316 317 317 318 317 312 309 309 306 303 304 299 305 306 307 306 299 308 312 312 311 314 316 317 318
312 312 312 313 313 314 314 312 316 318 316 316 316 314 303 316 309 312 313 309 312 314 316 317 314 308 308 302 299 300 295 298 301 308 307 306 301 308 312 312 311 312 314 315 317
312 311 311 312 312 313 313 311 317 317 317 318 316 309 307 303 309 310 312 311 308 308 308 310 309 304 303 300 292 296 297 298 298 304 306 304 304 308 310 311 311 312 315 316 316
311 311 311 312 312 312 313 314 309 310 310 303 303 302 304 309 311 308 310 307 307 304 298 302 299 295 299 301 300 300 298 297 302 305 303 302 304 306 310 310 310 312 313 315 317
310 310 311 312 312 312 314 308 307 308 301 306 305 305 307 308 302 305 309 302 300 296 299 296 293 298 300 301 299 298 296 296 300 303 302 301 301 305 307 309 311 311 313 314 316
310 310 311 311 311 312 313 309 314 312 304 302 304 303 304 306 301 302 305 302 298 295 296 293 295 297 296 296 293 295 295 296 294 299 301 300 298 301 305 307 309 310 312 313 314
309 309 310 309 308 312 310 312 314 313 300 298 300 303 304 305 300 305 305 301 297 294 295 294 297 295 294 292 294 290 296 296 294 294 290 300 289 299 303 304 306 308 310 312 313
309 309 309 308 312 308 308 313 314 313 290 298 299 307 305 301 301 301 306 302 295 295 295 292 293 293 290 292 294 290 296 296 295 295 295 295 292 296 302 301 304 308 310 312 313
308 308 308 310 312 310 311 314 313 298 287 294 299 298 298 300 300 301 301 304 302 296 297 295 298 296 294 295 295 296 294 294 293 291 288 294 292 294 297 301 304 308 310 312 313
307 307 308 311 305 311 312 311 297 289 297 293 294 297 297 296 297 297 296 295 292 288 289 293 293 296 296 293 296 294 292 285 283 285 284 295 292 295 301 304 306 307 310 313 314
305 304 311 312 311 310 312 304 289 292 292 296 295 296 294 297 296 296 295 292 295 294 290 287 285 292 296 294 291 292 290 285 278 282 286 295 288 295 304 306 307 309 310 312 313
303 316 313 311 310 311 306 294 291 292 294 293 295 292 293 296 295 295 293 292 294 295 287 287 287 296 297 298 295 292 289 295 288 290 285 289 293 301 304 303 306 307 309 310 312
310 312 309 311 312 310 301 290 293 295 295 295 290 293 290 293 292 293 292 295 294 296 296 292 285 293 295 297 296 293 297 288 291 281 281 286 289 291 298 300 304 305 307 310 312
310 307 310 312 312 305 294 292 294 296 296 293 292 292 293 292 292 290 290 294 296 295 296 294 290 290 294 292 291 290 291 292 292 290 282 284 288 301 299 304 305 309 311 311 311
309 302 310 311 301 302 294 293 291 295 297 295 296 295 294 294 291 290 291 293 297 296 291 294 291 287 290 297 298 296 294 293 286 286 290 289 289 302 305 306 310 310 310 311 312
303 305 311 309 294 295 296 295 294 294 294 294 294 296 297 292 287 292 293 297 297 295 292 294 289 284 287 294 297 294 294 295 290 294 289 285 291 302 304 306 308 308 309 309 310
302 299 304 305 301 296 294 294 293 296 294 295 295 297 295 293 294 291 292 295 298 297 298 296 289 284 282 286 291 290 292 294 293 289 290 291 292 300 300 299 304 308 309 310 310
305 300 299 297 297 296 296 294 291 291 295 297 296 296 295 288 291 292 295 294 297 298 297 294 287 289 290 291 291 290 291 292 292 293 289 293 294 298 300 301 303 306 308 309 311
299 297 303 298 298 297 292 294 291 292 293 294 294 296 296 293 293 288 291 293 292 296 294 294 288 290 288 293 293 290 293 293 294 294 293 293 292 301 304 304 305 307 308 308 311
306 305 300 299 297 295 294 292 291 294 296 297 296 296 296 298 300 300 299 300 297 294 292 289 289 287 286 291 291 288 289 290 289 291 289 285 292 296 297 299 303 304 304 307 310
Wind_Speed
20 20 19 20 19 20 20 20 20 19 19 18 18 16 16 15 16 18 15 4 5 7 7 16 12 16 19 20 22 19 18 21 31 28 21 21 21 20 15 15 20 20 18 1 13
20 21 21 21 21 20 21 21 21 21 19 18 17 15 15 14 17 15 10 7 5 5 11 13 12 14 18 18 20 21 17 32 24 22 22 22 16 14 19 18 18 18 15 8 10
22 22 22 22 22 21 21 21 20 20 20 18 17 15 14 14 14 12 11 10 6 9 14 15 16 13 21 21 22 24 28 23 22 25 15 22 19 16 16 20 13 19 19 14 12
24 24 25 25 24 23 22 21 20 20 18 16 14 13 11 14 6 9 3 5 3 11 14 14 15 20 21 24 24 29 28 25 25 28 22 17 19 22 22 19 17 18 15 18 18
25 26 26 26 25 23 21 21 20 18 17 14 9 7 9 9 7 6 8 10 9 8 13 14 18 20 24 24 24 29 25 27 27 21 23 21 21 21 22 21 16 19 16 16 7
24 25 26 26 25 22 19 18 17 16 14 8 4 5 9 6 9 11 8 9 8 10 13 13 16 18 21 25 27 24 23 23 26 25 25 21 23 23 26 22 21 19 20 19 18
25 25 25 25 25 22 19 17 14 12 8 5 4 8 3 11 7 11 15 6 9 10 13 15 14 20 16 20 24 26 26 25 23 22 25 23 27 31 24 22 22 24 24 22 22
25 25 26 25 24 22 17 14 9 7 4 3 6 11 6 7 9 11 12 13 1 8 11 12 15 17 21 21 26 24 23 25 24 28 25 22 36 24 24 30 30 28 21 20 27
26 26 26 26 24 23 16 11 9 7 6 7 9 7 7 1 8 13 12 13 8 5 9 10 13 17 18 21 21 20 26 29 28 26 26 31 36 23 23 17 17 23 25 25 23
26 26 26 25 25 24 19 8 8 9 10 9 10 9 13 15 11 13 12 16 16 16 14 16 15 16 17 16 20 22 25 26 27 23 25 25 24 21 24 15 14 14 16 18 23
26 26 25 23 22 23 18 4 9 7 13 10 8 6 9 16 10 11 9 17 13 16 20 18 14 15 24 16 30 27 29 32 26 21 17 23 21 20 20 22 17 15 16 14 14
27 27 25 22 20 21 11 12 11 8 9 2 3 4 8 14 18 19 11 16 18 19 17 17 20 22 20 17 17 21 26 28 25 25 24 24 23 23 20 22 21 18 17 19 19
26 27 26 22 23 9 4 12 9 3 9 6 3 6 13 19 21 14 16 17 20 18 19 18 22 26 19 17 17 22 26 23 26 26 27 28 29 27 25 26 27 26 25 23 24
27 27 25 28 5 9 7 13 10 2 8 6 3 7 13 19 7 15 9 17 18 23 22 18 17 14 17 18 22 18 19 23 23 21 19 25 22 25 25 27 29 28 28 25 25
27 27 25 14 9 8 12 11 8 5 5 8 8 5 19 14 11 17 14 16 21 20 18 20 21 20 17 18 19 21 22 20 17 20 23 28 19 18 24 23 22 20 21 29 28
27 25 23 2 8 14 13 10 5 10 7 8 9 16 19 12 17 17 17 13 16 16 18 17 10 17 17 20 16 18 21 22 20 15 14 22 22 22 22 26 21 22 22 22 21
28 22 14 10 12 14 12 8 9 8 13 11 16 20 17 14 16 15 19 15 9 12 17 22 13 19 6 14 16 9 15 11 11 15 16 19 23 22 21 24 22 17 17 19 18
29 22 9 6 12 12 9 12 5 12 12 14 16 20 10 17 16 16 19 12 9 16 17 12 18 6 3 17 21 21 9 8 11 15 14 9 13 22 28 26 22 20 17 11 13
30 6 4 10 11 9 11 5 6 9 13 14 17 9 12 17 16 18 16 8 9 14 10 15 13 28 21 12 2 13 18 16 18 21 16 9 12 24 23 8 7 9 12 17 17
8 5 7 15 9 10 8 2 5 6 11 10 13 8 19 18 16 18 11 7 13 7 12 11 18 15 11 18 11 9 18 9 7 10 16 12 20 17 19 17 14 8 16 13 14
7 6 8 14 10 5 6 6 4 7 9 8 11 15 16 17 18 17 6 11 9 15 16 16 6 12 22 7 14 7 12 12 11 9 4 11 5 15 6 9 8 8 13 7 2
6 5 8 11 4 2 7 5 1 5 5 6 7 8 10 17 11 10 12 11 13 15 16 10 7 14 25 10 3 5 7 6 6 10 13 17 12 7 20 7 15 9 8 7 9
7 4 5 12 6 7 5 4 3 9 9 6 7 5 12 10 6 10 10 11 13 12 6 7 5 11 11 2 7 14 7 5 7 11 17 14 10 10 23 4 2 6 6 1 5
6 5 2 3 4 7 8 4 8 4 7 5 11 10 7 13 11 11 22 8 19 18 12 8 5 11 11 21 23 19 19 14 10 5 13 15 16 29 10 18 23 24 9 10 10
3 4 4 6 7 7 5 5 10 9 4 11 6 7 13 5 17 14 20 20 14 6 3 2 8 16 21 22 21 22 21 15 15 17 17 21 24 20 15 7 20 16 14 12 12
7 6 1 10 6 8 5 5 9 9 10 9 11 15 15 12 10 14 17 18 8 9 9 4 7 19 23 17 11 15 16 16 13 14 21 23 30 27 25 23 23 17 17 17 13
2 4 6 3 5 7 5 7 10 12 9 9 14 17 18 15 20 23 21 19 16 15 14 4 5 7 10 20 18 6 2 4 10 18 20 17 22 22 24 21 21 16 11 12 12
Wind_Direction
346 343 342 339 336 335 333 330 328 324 320 315 311 309 306 305 295 257 254 359 354 360 315 262 224 221 234 232 228 224 247 243 243 247 251 252 257 256 247 254 253 252 249 158 116
342 339 338 336 335 333 331 329 326 322 318 315 311 307 304 306 291 269 28 353 279 277 235 226 218 213 221 227 226 225 229 240 249 257 258 265 244 257 264 230 235 251 237 114 168
341 340 338 337 335 333 332 328 323 319 317 314 307 302 298 299 270 73 19 332 218 233 253 288 273 221 235 232 223 222 240 256 251 258 277 288 270 254 239 250 231 237 228 188 208
342 341 339 337 336 335 333 329 323 322 319 313 300 291 293 268 336 51 77 103 212 249 265 260 250 248 236 240 234 238 241 246 258 275 275 248 277 269 263 244 256 257 250 227 185
340 340 338 337 337 334 331 328 323 326 321 311 296 275 260 229 38 65 176 171 222 228 254 258 254 247 242 252 242 241 250 253 258 261 265 271 253 257 261 261 257 262 258 250 220
338 337 337 337 336 333 332 324 322 324 325 326 290 260 254 258 351 339 304 299 260 272 275 265 266 267 281 268 261 272 266 264 252 255 266 247 259 253 249 256 263 254 246 243 231
338 338 338 337 336 335 336 326 325 325 347 358 263 263 276 30 328 332 347 317 294 281 285 282 275 283 274 261 257 267 267 266 258 255 259 262 259 249 254 252 244 235 238 242 237
339 340 338 337 336 335 339 321 319 314 326 299 258 275 53 33 322 0 5 342 29 289 275 284 290 280 273 279 280 276 262 257 245 242 239 233 254 246 237 227 234 240 231 232 227
339 340 338 337 335 330 328 306 283 263 249 240 247 260 49 304 338 324 342 333 318 269 274 279 259 259 262 253 254 249 257 257 256 240 245 225 249 249 258 238 245 223 233 234 235
339 338 337 335 333 323 314 266 251 259 213 235 245 265 35 354 350 302 0 317 303 304 265 218 238 246 238 242 260 262 246 243 254 254 257 238 245 262 249 267 236 235 242 241 227
338 335 335 331 327 314 316 207 327 177 354 22 16 44 352 351 309 289 5 319 317 305 289 295 239 262 287 319 331 294 260 272 282 289 250 263 249 240 243 239 222 222 239 248 247
337 335 332 327 320 308 286 26 27 317 301 83 160 246 335 341 322 322 352 316 321 304 305 278 267 267 264 289 299 300 292 285 270 270 273 271 266 265 266 269 271 253 234 247 247
336 334 331 326 317 284 2 20 334 329 256 127 342 305 334 327 319 349 330 334 316 306 310 309 302 306 294 250 252 285 288 289 283 278 258 255 250 248 251 255 254 252 249 244 249
335 334 330 321 290 329 39 349 344 17 263 62 32 77 325 328 348 336 341 325 300 307 306 296 288 293 304 288 294 257 254 272 315 299 282 251 260 249 234 239 241 241 244 239 234
334 331 323 332 311 351 339 329 346 229 298 17 2 311 334 331 312 347 340 322 300 302 298 294 297 289 292 293 299 288 275 273 281 262 271 265 256 249 256 255 242 246 241 227 228
331 331 321 230 267 349 321 316 213 231 34 344 341 343 330 351 342 350 329 302 307 296 279 280 297 288 281 281 275 280 278 276 269 259 250 249 255 258 245 238 245 243 242 243 234
329 327 305 285 337 326 321 261 250 17 350 359 335 331 316 346 347 336 329 328 349 325 333 322 355 335 243 323 290 306 261 256 266 248 257 252 230 243 257 257 253 245 247 227 234
326 321 223 313 330 321 292 263 333 13 3 334 325 305 316 347 350 328 334 333 4 349 329 333 317 184 175 288 301 308 204 270 256 253 268 276 272 238 241 243 254 252 245 255 243
312 220 289 355 327 303 275 30 9 360 341 328 312 331 344 339 341 341 342 342 359 19 353 317 306 322 291 305 92 309 298 290 285 277 264 241 289 281 254 255 211 248 262 242 243
313 275 37 339 320 281 271 50 350 358 333 325 321 341 330 343 338 340 328 13 345 19 347 300 299 299 324 319 269 259 295 290 227 257 253 259 233 222 231 210 204 247 216 233 223
269 269 25 339 293 274 20 35 331 2 342 328 332 315 330 345 335 315 305 327 18 337 325 307 256 286 296 257 294 326 261 206 244 266 271 277 358 15 102 310 88 50 38 27 213
281 293 16 329 277 33 21 5 321 319 325 308 291 300 326 338 322 322 297 347 353 325 323 320 290 293 296 300 344 181 292 286 282 264 289 296 257 309 321 85 98 319 93 64 1
320 309 84 319 13 6 23 279 279 306 323 308 298 316 326 331 309 294 302 304 321 319 300 338 258 305 302 159 261 331 291 230 193 262 265 281 289 158 218 91 328 186 223 178 320
296 315 122 167 118 328 353 17 332 323 317 290 291 292 321 312 304 283 292 328 322 299 296 281 240 239 271 295 312 300 306 287 224 258 289 277 264 276 61 339 320 302 316 322 307
351 57 18 317 2 336 300 306 327 338 302 295 274 266 335 307 314 279 330 322 310 354 282 288 273 276 278 280 283 285 287 290 284 270 276 292 287 288 308 225 225 259 301 300 304
319 336 305 272 295 288 154 338 318 331 309 292 304 321 312 295 271 292 305 299 284 305 337 317 275 304 295 293 275 270 297 317 314 339 320 314 295 301 333 322 304 310 314 305 285
33 174 273 259 290 285 23 325 311 311 296 275 302 309 309 324 313 298 287 277 261 265 279 254 277 305 291 326 314 244 72 6 321 310 304 287 299 320 308 313 315 307 305 293 298